HB9IMQ-13 Weather Reports


time (UTC)temp
F
wind
direction
speed
knots
gust
knots
rain 1hr
in
rain 24hr
in
rain mn
in
humidity
%
barometer
mb
20260506133020 50 298 3.5 9.6 0.24 2.17 0.42 90 1007.5
20260506132029 50 257 3.5 7.0 0.35 2.17 0.42 90 1007.4
20260506131037 50 291 3.5 12.2 0.47 2.17 0.42 90 1007.4
20260506130048 50 331 3.5 9.6 0.55 2.13 0.41 90 1007.3
20260506125040 49 273 5.2 10.4 0.67 2.09 0.40 90 1007.2
20260506124017 49 277 6.1 14.8 0.75 2.01 0.39 90 1007.1
20260506123030 50 221 4.3 13.0 0.98 1.93 0.37 90 1007.1
20260506122050 50 9 6.1 16.5 1.18 1.81 0.35 90 1006.8
20260506121024 50 302 3.5 12.2 1.18 1.69 0.32 89 1006.7
20260506120016 50 261 7.0 18.2 1.26 1.57 0.30 89 1006.7
20260506115029 51 268 7.0 20.0 1.30 1.42 0.27 89 1006.7
20260506114027 52 245 5.2 15.6 1.18 1.26 0.24 89 1006.5
20260506113026 53 309 3.5 11.3 0.87 0.94 0.17 89 1006.2
20260506112016 54 286 1.7 5.2 0.55 0.63 0.11 88 1005.9
20260506111030 54 300 1.7 7.0 0.39 0.47 0.08 87 1005.8
20260506110049 55 298 3.5 7.0 0.20 0.28 0.04 86 1005.6
20260506105047 56 298 2.6 8.7 0.04 0.12 0.01 85 1005.5
20260506104022 56 293 0.9 3.5 0.00 0.08 0.00 83 1005.4
20260506103015 56 325 0.9 3.5 0.00 0.08 0.00 82 1005.4
20260506102040 56 323 0.9 3.5 0.00 0.08 0.00 83 1005.4
20260506101029 57 266 1.7 5.2 0.00 0.08 0.00 84 1005.4
20260506100024 56 346 0.9 3.5 0.00 0.08 0.00 84 1005.3
20260506095023 56 323 0.9 3.5 0.00 0.08 0.00 84 1005.2
20260506094023 56 306 0.9 3.5 0.00 0.08 0.00 84 1005.2
20260506093021 56 227 0.0 1.7 0.00 0.08 0.00 83 1005.4
20260506092021 56 150 0.0 0.0 0.00 0.08 0.00 84 1005.3
20260506091020 56 150 0.0 0.0 0.00 0.08 0.00 84 1005.2
20260506090033 56 150 0.0 1.7 0.00 0.08 0.00 84 1005.2
20260506085025 56 151 0.0 1.7 0.00 0.08 0.00 84 1005.2
20260506084025 55 173 0.0 1.7 0.00 0.08 0.00 84 1005.2
20260506083039 55 182 0.0 0.0 0.00 0.08 0.00 84 1005.3
20260506082017 55 182 0.0 0.0 0.00 0.08 0.00 83 1005.0
20260506081031 55 182 0.0 0.9 0.00 0.08 0.00 84 1005.2
20260506073027 54 183 0.0 0.9 0.00 0.08 0.00 87 1005.2
20260506072027 54 186 0.0 0.9 0.00 0.08 0.00 88 1005.2
20260506071025 54 186 0.0 0.9 0.00 0.08 0.00 89 1005.1
20260506062026 51 186 0.0 0.0 0.00 0.08 0.00 91 1005.2
20260506061024 50 186 0.0 0.9 0.00 0.08 0.00 91 1005.2
20260506051015 49 178 0.0 1.7 0.00 0.08 0.00 91 1005.3
20260506045034 49 177 0.0 0.0 0.00 0.08 0.00 91 1005.3
20260506044024 49 177 0.0 0.0 0.00 0.08 0.00 91 1005.3
20260506043023 49 177 0.0 0.0 0.00 0.08 0.00 91 1005.3
20260506042018 49 177 0.0 0.0 0.00 0.08 0.00 91 1005.3
20260506041032 49 177 0.0 1.7 0.00 0.08 0.00 91 1005.3
20260506040030 50 177 0.0 1.7 0.00 0.08 0.00 91 1005.3
20260506035024 50 177 0.9 2.6 0.00 0.08 0.00 91 1005.5
20260506034020 50 178 0.0 1.7 0.00 0.08 0.00 91 1005.7
20260506033020 50 178 1.7 1.7 0.00 0.08 0.00 91 1005.8
20260506032014 50 178 0.0 0.0 0.00 0.08 0.00 91 1005.9
20260506031032 50 178 0.0 0.0 0.00 0.08 0.00 91 1006.0
20260506030029 50 178 0.0 0.0 0.00 0.08 0.00 91 1006.1
20260506025028 50 178 0.0 0.0 0.00 0.08 0.00 91 1006.2
20260506024025 50 178 0.0 0.0 0.00 0.08 0.00 91 1006.5
20260506023024 50 178 0.0 1.7 0.00 0.08 0.00 91 1006.5
20260506022041 50 178 0.0 0.0 0.00 0.08 0.00 91 1006.4
20260506021014 50 178 0.0 3.5 0.00 0.08 0.00 91 1006.4
20260506015047 50 178 0.9 2.6 0.00 0.08 0.00 91 1006.6
20260506014019 50 178 0.0 1.7 0.00 0.08 0.00 91 1006.7
20260506013030 50 178 0.0 2.6 0.00 0.08 0.00 91 1006.8
20260506012024 50 176 0.0 0.0 0.00 0.08 0.00 91 1007.0
20260506011022 50 176 0.0 0.0 0.00 0.08 0.00 91 1007.2
20260506010024 50 176 0.0 0.0 0.00 0.08 0.00 91 1007.2
20260506005038 50 176 0.0 0.0 0.00 0.08 0.00 91 1007.3
20260506004036 50 176 0.0 0.0 0.00 0.08 0.00 91 1007.4
20260506003027 50 176 0.0 0.0 0.00 0.08 0.00 91 1007.4
20260506002025 50 176 0.0 0.0 0.00 0.08 0.00 91 1007.6
20260506001024 50 176 0.0 0.0 0.00 0.08 0.00 91 1007.8
20260506000021 50 176 0.0 0.9 0.00 0.08 0.00 90 1008.0
20260505235033 50 176 0.0 1.7 0.00 0.08 0.00 91 1007.8
20260505234024 51 176 0.0 0.9 0.00 0.08 0.00 90 1007.7
20260505233016 51 176 0.0 1.7 0.00 0.08 0.00 90 1007.8
20260505232054 51 176 0.0 2.6 0.00 0.08 0.00 90 1007.9
20260505231032 51 128 0.0 0.0 0.00 0.08 0.00 90 1007.9
20260505230031 51 122 0.0 0.0 0.00 0.08 0.00 90 1008.0
20260505225031 51 122 0.0 0.0 0.00 0.08 0.00 90 1008.3
20260505224020 51 122 0.0 0.0 0.00 0.08 0.00 90 1008.2
20260505223020 51 123 0.0 0.0 0.00 0.08 0.00 90 1008.0
20260505222020 51 123 0.0 0.0 0.00 0.08 0.00 90 1007.9
20260505221035 51 123 0.0 0.0 0.00 0.08 0.00 90 1008.1
20260505220026 52 123 0.0 0.0 0.00 0.08 0.02 89 1008.3
20260505215026 52 123 0.0 0.0 0.00 0.08 0.02 89 1008.3
20260505214025 52 123 0.0 0.0 0.00 0.08 0.02 89 1008.5
20260505213044 52 123 0.0 0.0 0.00 0.08 0.02 89 1008.5
20260505212021 52 123 0.0 0.9 0.00 0.08 0.02 89 1008.6
20260505211018 52 123 0.0 0.9 0.00 0.08 0.02 88 1008.6
20260505210036 53 123 0.0 0.9 0.00 0.08 0.02 89 1008.5
20260505205028 53 123 0.0 1.7 0.00 0.08 0.02 89 1008.5
20260505204022 52 123 0.0 1.7 0.00 0.08 0.02 88 1008.5
20260505203015 52 123 0.9 2.6 0.00 0.08 0.02 88 1008.5
20260505202028 53 122 0.0 0.0 0.00 0.08 0.02 88 1008.5
20260505201028 53 122 0.0 0.9 0.00 0.08 0.02 88 1008.4
20260505200027 53 104 0.9 3.5 0.00 0.08 0.02 88 1008.4
20260505195044 53 36 0.0 1.7 0.00 0.08 0.02 88 1008.1
20260505194016 53 20 1.7 6.1 0.00 0.08 0.02 87 1008.1
20260505193059 54 101 0.9 4.3 0.00 0.08 0.02 87 1008.0
20260505192028 54 171 0.0 4.3 0.00 0.08 0.02 86 1007.8
20260505191022 54 198 0.9 2.6 0.00 0.08 0.02 86 1007.6
20260505190016 55 181 0.9 2.6 0.00 0.08 0.02 86 1007.8
20260505185026 55 184 1.7 4.3 0.00 0.08 0.02 86 1007.7
20260505184025 56 165 1.7 5.2 0.00 0.08 0.02 86 1007.6
20260505183019 56 155 3.5 7.8 0.00 0.08 0.02 85 1007.7
20260505182016 56 185 3.5 4.3 0.00 0.08 0.02 85 1007.6
20260505181028 56 178 3.5 7.8 0.00 0.08 0.02 85 1007.6
20260505180047 56 196 4.3 8.7 0.00 0.08 0.02 85 1007.7
20260505175016 56 213 4.3 10.4 0.00 0.08 0.02 85 1007.7
20260505174028 56 190 3.5 8.7 0.00 0.08 0.02 86 1007.7
20260505173026 56 167 4.3 7.8 0.00 0.08 0.02 87 1007.8
20260505172026 55 203 1.7 3.5 0.00 0.08 0.02 88 1007.7
20260505171024 55 265 0.0 0.9 0.04 0.08 0.02 87 1007.7
20260505170022 55 265 0.0 1.7 0.04 0.08 0.02 88 1007.5
20260505165043 55 261 1.7 7.0 0.04 0.08 0.02 87 1007.5
20260505164016 55 235 1.7 4.3 0.04 0.08 0.02 87 1007.4
20260505163030 55 277 0.9 7.0 0.04 0.08 0.02 87 1007.3
20260505162028 55 303 2.6 6.1 0.04 0.08 0.02 86 1007.4
20260505161024 56 296 1.7 10.4 0.04 0.04 0.01 84 1007.6
20260505153028 57 329 5.2 11.3 0.04 0.04 0.01 83 1007.3
20260505152027 58 290 5.2 12.2 0.04 0.04 0.01 82 1007.0
20260505151025 59 306 5.2 9.6 0.00 0.00 0.00 80 1007.0